Location: Leeds
(37.2390°N, 113.3580°W)
Time: 14:41:28
(UTC-06:00)

Daily predictions for brighter satellites

Satellite Brightness Start Highest point End
(mag) Time Altitude Azimuth Time Altitude Azimuth Time Altitude Azimuth
Cosmos 2315 Rocket 4.0 21:04:12 10° S 21:10:24 69° E 21:16:41 10° NNE
Helios 1A 3.7 21:07:37 10° SE 21:11:32 38° ENE 21:15:27 10° N
Meteor 1-29 3.8 21:12:21 10° NE 21:15:21 29° E 21:18:18 10° SSE
Cosmos 724 4.5 21:12:31 10° NNW 21:18:32 77° WSW 21:24:21 10° SSE
YAOGAN 6 4.2 21:16:51 10° ESE 21:19:24 19° ENE 21:21:57 10° NNE
SAR-Lupe-4 4.4 21:16:11 10° SE 21:19:27 34° ENE 21:22:44 10° N
Resurs 1-3 4.1 21:20:26 10° S 21:24:44 61° WSW 21:29:06 10° NNW
USA 40 PKM 4.2 21:21:38 10° SSW 21:25:06 64° SE 21:29:01 10° NE
ERS-1 Rocket 4.2 21:21:40 10° ESE 21:25:44 25° ENE 21:29:49 10° NNE
Cosmos 405 Rocket 3.6 21:22:29 10° SSE 21:25:45 29° E 21:29:05 10° NNE
RESURS DK-1 3.3 21:22:01 10° SW 21:26:03 53° WNW 21:30:06 10° NNE
Cosmos 1656 Rocket 4.4 21:21:27 10° N 21:26:29 37° ENE 21:31:13 11° SE
Cosmos 1544 Rocket 3.5 21:23:31 10° N 21:27:52 76° E 21:32:10 10° S
Cosmos 2369 Rocket 3.2 21:22:36 10° NW 21:28:00 46° WSW 21:33:24 10° S
NOSS 3-2 (C) 4.4 21:21:02 10° NW 21:28:41 70° WSW 21:36:50 10° SSE
Okean 1 3.4 21:24:47 10° S 21:28:44 79° W 21:32:43 10° N
Cosmos 1818 3.6 21:23:49 10° SSW 21:29:15 88° ESE 21:34:44 10° NNE
Resurs 01 Rocket 2.8 21:27:04 10° S 21:31:18 44° W 21:35:33 10° NNW
Cosmos 1975 2.8 21:30:24 10° N 21:34:29 82° E 21:38:33 10° S
SAR-Lupe-1 4.4 21:32:55 11° SSE 21:36:12 48° ENE 21:39:41 10° N
H-2A R/B 4.1 21:35:26 10° ENE 21:36:17 10° ENE 21:37:08 10° NE
Cosmos 1441 Rocket 4.5 21:36:21 14° SE 21:38:27 22° E 21:41:21 10° NE
Cosmos 773 Rocket 4.1 21:34:10 10° SSW 21:39:19 83° WNW 21:44:29 10° NNE
PSLV R/B 4.3 21:36:22 10° WNW 21:39:20 39° N 21:42:19 10° ENE
Cosmos 1500 3.4 21:35:58 10° NNW 21:39:44 71° W 21:43:27 10° S
NOSS 2-2 (D) 3.3 21:37:31 10° SSW 21:41:28 85° SE 21:45:52 10° NNE
Cosmos 1943 Rocket 2.5 21:37:17 10° NNW 21:42:51 68° WSW 21:48:20 10° S
USA 81 4.0 21:37:47 10° S 21:43:02 77° E 21:48:20 10° N
Meteor 1-13 Rocket 4.3 21:41:37 10° S 21:47:31 68° E 21:53:23 10° NNE
Cosmos 1939 Rocket 2.7 21:43:59 10° SSE 21:47:50 85° ENE 21:51:42 10° N
Helios 1B rocket 2.7 21:44:17 10° N 21:48:24 72° WNW 21:52:31 10° SSW
CENTAUR R/B 3.3 21:41:43 10° NNW 21:49:39 66° NE 21:56:30 17° SE
SL-27 R/B 3.3 21:48:02 15° SSE 21:50:24 31° ESE 21:53:40 10° NE
Nadezhda 1 Rocket 4.4 21:45:05 10° SSE 21:51:05 47° E 21:57:08 10° NNE
Cosmos 1455 Rocket 3.4 21:48:52 10° NNW 21:53:12 64° W 21:57:28 10° S
Cosmos 1346 2.7 21:54:39 17° S 21:56:34 64° E 21:59:19 10° NNE
COSMOS 2406 3.2 21:51:08 10° SSW 21:56:51 77° ESE 22:02:34 10° NNE
ARGOS 4.2 21:55:04 17° ESE 21:58:13 30° ENE 22:02:53 10° N
NOSS 2-2 (C) 4.0 21:56:20 10° SW 22:00:16 60° NW 22:04:41 10° NNE
COSMOS 2455 3.2 21:54:25 10° NNW 22:00:22 63° WSW 22:05:37 13° SSE
Cosmos 1680 Rocket 3.4 21:57:06 10° S 22:02:18 74° ESE 22:07:31 10° NNE
SPOT 5 3.8 22:02:19 20° ESE 22:04:06 27° ENE 22:07:45 10° NNE
Cosmos 1743 2.7 22:01:06 10° N 22:05:00 89° W 22:07:48 18° S
Cosmos 405 3.9 22:04:56 10° NNE 22:08:09 31° ENE 22:08:58 27° ESE
Cosmos 2082 Rocket 4.1 22:09:49 12° E 22:09:49 12° E 22:11:14 10° ENE
Cosmos 374 Rocket 4.3 22:06:09 10° NNW 22:09:53 64° NE 22:11:44 29° SE
ASTRO E2 3.5 22:08:33 10° WSW 22:12:10 33° S 22:13:07 29° SSE
Envisat 4.1 22:10:25 10° S 22:15:12 42° W 22:20:01 10° NNW
Tiangong 2 1.0 22:12:42 10° WSW 22:15:53 90° S 22:17:53 21° ENE
Terra 3.8 22:16:04 12° E 22:17:23 13° ENE 22:19:37 10° NE
ASTEX 1 3.3 22:16:00 19° S 22:19:33 87° E 22:24:28 10° N
MetOp-B 4.1 22:21:22 27° SSE 22:24:20 68° ENE 22:29:40 10° N
Cosmos 1437 Rocket 3.7 22:21:04 10° NNE 22:24:29 30° ENE 22:24:52 29° E
CRYOSAT 2 4.3 22:22:10 22° S 22:25:20 89° E 22:30:12 10° N
Okean 1-7 Rocket 3.5 22:23:39 22° S 22:26:26 79° E 22:30:56 10° N
SPOT 1/Viking Rocket 4.3 22:24:54 28° ESE 22:26:51 38° ENE 22:31:35 10° N
Okean 2 3.5 22:26:10 39° SE 22:27:14 50° E 22:31:12 10° NNE
ISS -3.8 22:25:23 10° SW 22:28:40 81° NW 22:31:58 10° NE
Cosmos 1238 Rocket 4.1 22:25:13 10° S 22:31:54 88° W 22:38:34 10° N
Cosmos 1666 3.2 22:31:35 10° NNW 22:35:15 54° W 22:36:54 29° SSW
Aureole 1 Rocket 3.5 22:34:13 10° SW 22:37:35 41° WNW 22:40:31 10° N
Meteor 2-9 Rocket 4.2 22:33:06 10° N 22:38:36 83° W 22:41:40 28° S
Cosmos 1892 Rocket 3.9 22:38:45 41° ESE 22:39:15 43° E 22:43:27 10° NNE
Meteor 2-4 Rocket 4.3 22:37:57 10° SSW 22:43:27 59° WNW 22:49:08 10° N
Cosmos 2228 4.3 22:40:12 10° NNE 22:43:46 26° ENE 22:43:46 26° ENE
Cosmos 1371 Rocket 4.1 22:41:36 10° NNW 22:46:54 64° ENE 22:48:28 43° SE
OAO 2 Rocket 3.2 22:42:37 10° W 22:47:33 69° S 22:48:59 45° ESE
DNEPR-1 R/B 3.6 22:43:31 10° NW 22:47:48 76° WSW 22:48:59 49° SSE
Cosmos 921 Rocket 4.1 22:45:20 10° N 22:49:22 31° ENE 22:49:41 31° ENE
Cosmos 1833 Rocket 3.7 22:53:01 28° E 22:53:01 28° E 22:57:07 10° NE
USA 245 3.6 22:53:36 40° NNW 22:53:36 40° NNW 22:55:19 10° NNW
Cosmos 1606 Rocket 3.4 22:51:10 10° N 22:55:29 74° E 22:55:59 65° SE
YAOGAN 11 4.3 22:56:08 44° SSW 22:57:16 62° WSW 23:01:33 10° NNW
H-2A R/B 3.9 22:28:14 10° W 22:59:59 36° SW 23:02:51 28° S
Cosmos 2181 Rocket 4.0 22:57:56 37° SSE 23:00:36 73° E 23:06:54 10° N
SL-24 DEB 4.1 23:00:07 58° S 23:01:01 87° E 23:05:40 10° N
Cosmos 1515 3.6 23:02:58 82° N 23:02:58 82° N 23:06:38 10° N
ERS-1 Rocket 4.3 23:01:29 19° SSW 23:04:20 33° W 23:08:51 10° NNW
CZ-3A R/B 2.6 23:01:46 10° WSW 23:04:06 23° WSW 23:04:06 23° WSW
Cosmos 1726 Rocket 3.3 23:02:04 10° N 23:06:24 82° E 23:06:36 78° SE
Cosmos 2058 Rocket 3.0 23:08:49 10° N 23:13:09 70° ENE 23:13:09 70° ENE
CARTOSAT-1 4.1 23:13:46 46° ENE 23:13:46 46° ENE 23:17:39 10° N
H-2A R/B 1.8 23:14:06 62° S 23:14:55 83° WSW 23:19:57 10° NNW
USA 267 3.3 23:14:56 10° NE 23:21:13 49° SE 23:21:19 49° SE
Cosmos 1980 Rocket 3.9 23:18:55 10° N 23:22:53 19° NE 23:24:11 18° ENE
Cosmos 1295 Rocket 4.4 23:16:50 10° N 23:23:01 86° W 23:24:42 52° S
DMSP B5D2-2 4.0 23:22:10 10° NNE 23:27:29 84° WNW 23:28:29 60° SSW
Cosmos 1624 Rocket 4.2 23:25:45 10° NNW 23:30:57 60° WSW 23:31:37 55° SW
ARGOS 4.5 23:36:35 26° SW 23:38:20 31° W 23:43:08 10° NW
H-2A R/B 2.3 23:39:03 73° N 23:39:03 73° N 23:43:10 10° NNW
Landsat 7 4.0 23:39:26 60° WSW 23:39:30 60° W 23:44:13 10° NNW
CENTAUR R/B 4.4 23:33:18 10° NW 23:40:01 29° WSW 23:43:43 21° SSW
Meteor 1-22 Rocket 4.3 23:35:01 10° N 23:40:05 55° ENE 23:40:05 55° ENE
SPOT 5 4.4 23:41:33 21° WSW 23:42:09 22° W 23:45:32 10° NW
Cosmos 2056 Rocket 4.2 23:44:47 10° NNW 23:49:37 42° WSW 23:49:51 41° WSW
Cosmos 1626 Rocket 4.2 23:51:28 50° N 23:51:28 50° N 23:54:43 10° N
SL-8 Rocket 4.1 23:45:02 10° NNW 23:51:14 68° W 23:52:21 57° SW
Cosmos 2082 Rocket 2.2 23:51:35 66° SW 23:52:19 76° WNW 23:58:00 10° NNE
Cosmos 2278 3.6 23:46:43 10° NNW 23:52:25 73° WSW 23:52:35 72° SW
Tiangong 2 4.3 23:49:59 10° WNW 23:50:11 11° WNW 23:50:11 11° WNW
Terra 2.2 23:54:57 59° WNW 23:54:57 59° WNW 23:59:17 10° NNW
